SCP
8 9 9 10 11 11 11 9 9 7 6 5 6 6 6 5 5 5 5 6 6 6 6 5 5 5 4 4 3 3 2 2 2 3 2 2 2 3 4 4 5 5 5
8 9 10 10 11 11 11 11 10 9 7 6 6 6 5 5 5 5 6 6 6 7 6 5 5 5 5 5 4 3 2 2 3 3 3 2 3 3 4 5 6 7 7
9 10 11 12 11 11 11 11 11 10 8 7 6 5 5 5 5 6 6 6 6 7 8 7 6 5 6 6 6 4 3 2 3 3 3 3 3 4 5 6 7 10 11
10 11 12 12 12 11 11 11 10 9 8 7 6 6 5 5 5 6 6 6 6 7 8 9 8 7 6 6 6 5 4 3 3 3 3 4 4 5 5 6 9 12 14
10 11 11 12 12 11 11 10 8 7 6 6 6 6 6 5 5 5 5 5 5 6 6 8 9 9 6 5 5 5 4 4 4 4 4 4 5 5 6 7 10 13 15
9 9 10 10 10 9 9 7 6 5 5 6 6 6 6 5 4 3 4 5 5 5 5 6 7 8 6 4 3 3 3 3 4 4 4 4 5 5 6 7 8 11 13
8 8 8 9 8 8 6 6 5 5 5 5 6 7 7 5 3 2 3 4 5 5 5 4 4 5 4 3 2 2 2 2 3 3 4 4 4 5 5 5 6 8 9
8 8 8 8 8 7 7 6 6 6 5 5 6 6 7 6 4 2 2 4 6 6 5 4 3 3 3 2 2 3 3 3 3 3 3 3 4 4 5 5 6 7 9
9 9 9 9 8 8 7 7 7 6 6 5 5 5 6 6 4 2 2 3 5 6 6 4 3 3 2 2 2 3 3 4 4 3 3 3 3 3 3 5 7 9 11
12 12 11 10 9 8 8 8 7 7 6 6 5 5 5 5 4 2 2 3 5 5 6 5 3 2 2 1 2 2 3 3 4 4 4 5 5 4 4 4 7 10 13
14 13 12 10 8 7 8 8 6 6 6 6 6 6 6 5 4 2 2 3 5 6 6 5 3 1 1 1 1 2 2 2 3 4 4 6 7 7 7 7 7 9 11
13 12 11 9 6 6 7 7 7 6 5 5 6 6 6 6 4 2 1 2 4 5 5 4 3 1 1 0 1 1 2 2 2 3 3 4 6 8 9 9 9 9 10
10 10 9 8 7 7 8 8 7 6 5 5 5 6 6 6 5 3 1 1 2 3 3 3 2 1 1 0 0 1 2 3 3 3 3 4 4 6 7 9 8 7 7
10 10 10 9 9 10 9 8 6 5 4 4 5 5 6 7 7 5 2 1 0 1 1 1 2 2 1 1 1 2 3 4 4 4 4 4 5 5 6 6 5 4 4
15 14 12 11 12 12 9 6 4 3 3 3 4 4 5 5 5 5 3 1 1 0 1 2 2 3 3 3 3 4 5 5 6 6 6 6 5 5 4 4 3 2 1
17 16 13 12 13 11 7 4 2 1 1 1 1 2 2 3 2 2 1 1 1 0 1 2 3 3 3 3 4 5 5 6 6 7 7 7 5 4 3 2 1 1 1
15 14 12 12 11 9 5 2 1 1 0 0 0 0 0 0 0 0 0 0 0 0 1 2 3 3 3 3 4 5 6 6 6 7 8 7 5 3 2 1 1 1 1
12 11 10 9 7 5 3 2 2 2 1 1 1 0 0 0 0 0 0 0 0 0 1 2 3 3 3 3 4 4 5 6 7 7 6 5 3 2 2 1 1 1 1
9 8 8 7 4 3 2 1 1 1 1 2 2 1 0 0 0 0 0 0 0 0 1 2 3 4 4 4 4 4 5 5 6 5 4 3 2 2 2 1 1 1 1
4 4 5 4 3 2 1 1 1 1 1 2 2 1 1 0 0 0 0 0 0 0 1 2 3 4 5 5 5 4 4 4 4 3 2 2 2 1 1 1 1 1 1
2 2 2 2 1 1 1 0 0 0 1 1 1 1 1 0 0 0 0 1 1 1 1 2 3 4 5 5 5 4 4 3 3 2 1 1 1 1 1 1 1 1 1
1 1 1 1 1 1 1 1 0 0 0 0 1 1 1 1 1 1 1 1 1 1 1 1 2 3 4 5 4 4 4 3 2 1 1 1 1 1 0 0 1 1 1
1 1 1 1 1 1 1 1 0 0 0 0 1 1 1 1 1 1 1 1 1 1 0 1 1 1 2 3 3 3 2 2 1 1 1 1 1 1 1 0 0 0 0
1 1 1 1 1 1 1 1 1 0 0 0 1 1 2 2 2 1 1 1 1 1 1 1 0 1 1 1 1 1 1 1 0 0 1 1 1 1 1 1 0 0 0
1 1 1 1 1 1 1 1 1 0 0 0 1 1 2 2 2 1 1 1 1 1 1 1 1 0 0 0 0 0 0 0 0 0 0 0 0 0 0 0 0 0 0
1 1 1 1 1 1 1 1 1 0 0 0 1 2 2 2 2 1 1 1 1 1 1 1 1 0 0 0 0 0 0 0 0 0 0 0 0 0 0 0 0 0 0
Wind_Speed
5 4 4 4 3 3 2 2 2 2 2 2 2 2 2 1 1 1 1 1 1 0 1 0 1 1 1 1 1 1 1 1 1 1 1 1 1 1 1 1 1 3 3
4 4 4 4 3 3 3 2 2 2 2 2 2 2 3 2 2 1 1 1 1 0 1 1 1 1 1 1 1 1 1 1 0 1 1 1 0 0 1 2 1 1 2
5 5 4 3 3 3 2 2 2 2 2 2 2 2 2 1 1 1 1 0 0 0 0 0 1 1 1 1 1 1 1 2 0 1 1 1 0 0 0 2 2 1 1
4 4 4 2 2 2 3 2 2 2 2 2 2 1 1 1 0 0 1 1 1 0 0 0 0 0 1 1 1 1 1 1 1 1 1 0 0 1 0 1 2 1 1
4 4 4 3 2 2 2 2 2 2 2 1 1 1 1 1 0 0 1 1 1 1 0 0 0 1 1 0 1 1 1 1 1 1 1 1 0 0 1 1 2 1 2
3 3 4 3 3 2 2 2 2 1 1 1 1 1 1 0 2 2 1 0 0 1 1 1 2 2 2 2 1 0 1 1 1 1 1 1 1 1 1 2 1 1 2
3 3 4 4 4 3 3 2 2 1 1 1 1 1 1 1 1 2 1 1 1 1 1 1 2 1 2 1 1 2 2 2 2 2 2 2 1 1 2 2 2 2 3
3 3 3 3 3 3 3 2 2 2 2 1 1 1 2 2 2 1 2 2 2 2 2 2 1 0 0 1 2 1 1 0 1 1 1 2 2 2 2 2 3 3 3
3 3 3 3 3 3 3 3 2 2 1 1 1 1 2 2 3 2 2 3 2 2 2 1 1 2 1 1 1 1 1 0 1 1 1 2 3 3 2 1 2 2 2
2 2 2 2 2 3 3 2 2 2 2 1 1 1 1 2 3 3 2 3 2 2 2 2 2 2 2 2 2 1 1 1 1 0 1 2 3 3 3 3 2 2 2
1 2 2 1 1 2 2 2 1 1 1 1 1 1 1 2 3 3 3 2 2 2 2 2 1 2 3 3 3 3 3 2 2 2 1 1 2 2 2 2 2 2 2
2 2 1 1 1 1 2 2 1 1 1 1 1 1 1 2 2 3 3 3 3 2 2 1 1 3 4 5 4 4 4 3 2 1 1 2 1 1 1 1 2 3 3
1 2 1 1 1 1 2 2 2 2 2 2 2 1 1 1 2 2 3 3 3 2 2 2 2 4 5 5 7 6 4 3 2 2 2 2 2 2 1 2 2 2 2
1 1 1 1 1 1 1 1 1 1 1 1 1 0 0 1 1 0 1 2 3 3 3 3 4 5 5 4 4 4 3 3 2 2 2 1 1 1 2 2 1 1 1
1 1 1 1 2 1 1 1 1 1 1 0 1 1 0 1 1 1 1 1 2 1 2 3 4 3 3 3 3 3 3 2 2 2 1 1 2 1 2 1 1 1 2
2 1 1 1 1 2 2 1 3 2 3 3 3 2 1 2 1 1 1 2 3 3 2 4 4 4 4 3 3 2 2 2 1 1 1 1 2 2 2 1 1 2 2
1 1 2 1 2 2 2 2 2 1 1 1 2 3 3 2 1 2 2 4 4 2 3 3 3 3 2 2 2 2 2 2 1 1 1 2 1 2 1 1 1 1 1
2 2 2 1 2 2 2 2 2 2 2 1 2 3 3 3 3 3 2 2 3 2 3 2 1 1 2 1 1 0 0 1 1 1 2 2 2 2 2 1 1 1 1
2 1 1 2 2 2 2 2 2 2 2 1 2 2 3 3 3 4 2 2 3 1 1 1 1 1 1 1 1 1 0 0 0 1 1 1 1 2 2 1 1 2 2
1 2 3 3 2 2 3 3 2 2 2 2 2 1 2 2 2 2 2 2 2 2 1 1 1 1 1 1 1 1 1 1 1 1 1 2 2 2 2 2 2 2 1
2 2 3 3 3 2 3 2 2 2 2 2 2 2 3 3 3 2 2 1 1 1 1 1 1 1 1 1 0 1 2 1 1 1 1 2 2 2 2 2 2 2 2
2 2 3 2 2 2 3 3 2 2 2 3 2 3 5 3 2 1 1 1 1 1 1 1 1 1 1 1 1 1 1 1 1 2 2 2 2 2 2 2 2 1 1
3 3 2 2 2 2 3 4 3 2 3 3 2 2 3 2 2 1 1 1 1 1 1 0 1 1 1 1 1 1 1 2 2 2 3 3 3 3 2 2 2 2 1
3 3 2 2 2 2 3 3 2 2 2 1 1 1 2 2 1 1 1 1 1 0 0 0 0 1 1 1 1 2 2 3 3 3 4 4 4 3 2 2 2 2 1
3 2 2 2 1 2 2 2 1 1 1 1 1 1 1 1 1 1 1 1 1 1 1 1 0 0 1 2 3 2 2 3 2 3 4 3 4 4 3 3 2 2 1
3 2 2 1 1 2 2 2 2 2 2 2 1 1 1 1 1 1 0 0 1 0 0 0 2 2 3 3 3 3 2 2 3 4 4 4 4 3 3 2 3 2 1
Wind_Direction
156 156 150 159 159 167 162 146 140 138 151 166 168 173 188 182 190 219 251 212 215 259 286 231 245 269 308 318 314 312 305 292 288 308 357 70 107 117 132 220 197 176 187
148 146 149 151 156 168 158 149 147 155 173 186 185 191 201 187 189 208 246 253 195 199 289 302 293 282 290 302 313 317 312 296 233 258 302 324 343 133 217 255 260 222 192
146 148 141 158 162 157 150 152 165 172 181 191 201 206 211 190 192 199 185 250 240 214 225 263 293 313 315 318 319 316 309 312 323 266 267 274 281 278 13 298 297 292 248
148 148 147 156 149 152 157 158 167 187 189 191 202 205 205 208 202 214 194 208 222 242 337 23 14 41 316 314 297 307 320 315 300 279 253 269 294 324 43 302 302 285 271
152 149 148 149 142 145 158 166 172 191 191 187 192 204 201 219 249 279 235 184 212 213 196 189 173 140 113 53 357 6 351 328 304 292 264 260 288 303 278 277 288 293 289
151 150 146 153 159 159 163 166 166 166 167 188 200 196 207 312 51 70 43 327 275 249 244 232 207 169 163 176 207 219 229 248 271 280 272 259 285 293 303 294 304 303 291
156 159 161 164 170 171 175 173 169 170 200 220 207 152 142 135 62 51 26 240 252 254 274 277 274 187 140 204 238 221 225 238 228 239 276 292 287 291 301 296 296 292 281
160 168 166 166 172 171 173 178 182 186 206 226 217 186 180 179 189 213 274 218 236 245 239 243 236 204 256 281 239 207 209 232 233 220 270 297 294 291 278 268 273 277 268
157 167 162 170 174 173 174 179 187 187 208 232 226 196 191 186 192 211 254 239 224 238 232 246 225 175 229 256 235 224 210 227 204 172 245 268 267 269 272 276 270 273 273
156 160 155 161 174 169 161 172 178 185 213 227 227 203 191 187 186 199 236 254 231 226 214 198 181 189 197 211 226 225 218 246 256 310 282 262 252 245 235 232 254 268 274
165 150 134 126 159 154 140 152 182 204 206 216 223 200 187 164 164 180 210 251 271 254 228 203 190 191 209 228 236 229 222 238 244 233 232 243 247 243 222 215 226 245 268
170 152 143 148 196 155 137 160 195 185 185 222 229 221 170 151 155 182 202 233 278 291 289 274 185 204 217 226 230 233 237 244 235 226 231 237 238 242 255 235 225 232 236
171 160 160 168 164 169 177 183 201 187 213 220 220 225 201 150 144 179 212 241 265 265 288 285 255 227 229 227 225 227 225 222 224 232 244 245 233 230 225 245 236 230 245
180 174 178 168 170 184 189 202 199 211 241 224 214 228 162 105 95 94 237 235 244 242 257 255 245 230 230 239 228 215 212 216 219 236 251 266 268 239 231 222 230 235 241
180 180 199 194 173 133 64 30 49 39 31 65 14 23 55 50 23 328 299 292 293 294 280 247 232 210 210 212 207 203 203 209 221 236 250 264 268 258 251 238 232 239 248
198 191 217 206 174 170 156 96 44 78 106 112 116 120 84 110 161 309 325 305 294 289 269 252 235 222 221 218 209 203 201 201 213 233 255 264 266 263 269 266 247 235 246
210 217 231 220 206 207 200 182 158 110 93 115 154 154 163 179 240 279 297 306 296 280 243 251 250 247 238 227 223 216 206 204 202 220 246 263 274 284 283 282 283 277 262
215 217 231 232 237 228 215 213 200 189 192 192 194 195 196 218 251 267 287 321 282 238 238 251 256 265 270 282 268 229 202 213 206 214 244 261 271 280 282 278 282 288 278
228 235 241 251 248 240 234 232 223 209 211 201 162 187 223 239 258 262 257 264 283 283 262 268 297 305 307 323 343 327 270 226 236 260 265 273 273 278 283 284 287 286 258
227 244 249 251 242 241 244 239 228 224 220 214 212 186 177 210 248 249 230 253 276 305 313 320 302 304 309 307 316 312 288 246 215 236 280 284 279 281 278 273 272 274 260
224 222 240 251 250 254 263 254 245 237 235 233 218 173 176 218 242 244 240 250 279 298 314 308 285 284 290 290 327 313 300 304 305 279 285 294 296 289 285 280 284 283 279
244 234 235 252 266 269 274 268 253 241 237 230 218 181 186 229 248 241 237 246 271 282 291 301 298 313 317 316 317 292 294 310 318 313 290 282 283 287 281 273 278 285 289
240 231 231 241 250 254 263 266 258 245 238 238 217 194 191 228 241 225 229 240 244 251 258 302 341 351 16 17 354 348 336 330 330 331 320 305 293 286 283 281 276 274 267
256 251 240 242 245 246 253 259 257 256 252 240 232 209 195 199 227 244 254 261 260 295 308 278 308 351 7 30 26 33 21 2 338 325 316 301 294 292 292 286 278 273 254
260 271 271 253 250 254 262 272 282 291 278 262 244 240 218 190 196 198 262 269 234 207 241 250 199 288 19 50 53 52 37 28 3 327 308 297 290 292 298 295 288 287 290
264 276 281 261 245 244 251 260 263 260 250 242 219 194 230 222 204 192 198 292 294 284 285 5 39 55 74 70 67 72 59 29 356 325 304 285 282 289 298 291 300 298 306